sat.trackr.live / text

‹ back to catalog

STARLINK-3968

NORAD 52639 · 2022-052AT

PAYLOAD ACTIVE UNKNOWN

§ Identity

Operator
Country
US
Launch date
2022-05-14
Launch site
AFETR
Launch vehicle
Mass (kg)
RCS (m²)

Purposes: comms

External: N2YO · Heavens-Above · Gunter

§ Orbital elements

Epoch: 2026-05-24T15:25:01.050528Z

Period
95.44 min
Inclination
53.2158°
Eccentricity
0.0001178
Mean motion
15.08846289 rev/d
Perigee alt
538.9 km
Apogee alt
540.5 km
Semi-major
6,917.9 km
B*
1.4409e-4
RAAN
278.1543°
Arg perigee
85.3296°
Mean anomaly
274.7830°
Rev number
22,340

§ Raw data

STARLINK-39681 52639U 22052AT  26144.64237327  .00002006  00000+0  14409-3 0  99952 52639  53.2158 278.1543 0001178  85.3296 274.7830 15.08846289223404

JSON: /api/v1/satellites/52639 · /tle

For live sub-satellite position, see the globe view (requires WebGL).

§ Visibility from observer

Set your observer location to see the next 7 days of passes ≥ 10°. The values pass through the URL so the page stays shareable.

No JS? Fill the form by hand. The geolocation button needs JavaScript.